RESURS O1 DEB, 23345

Orbit data source: Space-Track

RESURS O1 DEB, 23345 is space debris in SSO originally from a launch on Fri, 04 Nov 1994 UTC launched from the Tyuratam Missile And Space Complex (TTMTR). Debris objects in space refer to the collection of defunct objects orbiting the Earth. Examples of debris include non-operational satellites, rocket bodies, and fragments generated from explosions, collisions, or faulty payload assembly.

Loading next visibility...
Identifier
23345, 1994-074D
Orbit
SSO
Country
Flag of CISCIS
Related business
Manufacturer
Yuzhnoe
Mission
Spacecraft
Bus & Motor
SEP MOTOR COVER, Unknown motor
Mass
~0 kg wet, ~1 kg dry
Launch date (UTC)
1994-11-04 (32 years ago)
Launch vehicle
Unknown
Launch site
Tyuratam Missile And Space Complex (TTMTR)
Object type
Payload
Rocket body
Debris
Shape & HBR
CONE, 0.2 m
Radar Cross Section
Medium (>0.1 m² and <1 m²)

Expand to show TLE details & history
Last TLE update: 1 day ago

TLE from 1 day ago
0 RESURS O1 DEB
1 23345U 94074D   26247.38857733  .00000236  00000-0  82742-4 0  9994
2 23345  97.8384  37.9374 0187143 297.4799  89.7218 14.33948040659104
Epoch: 2026-09-04T09:19Z
TLE epoch observation values (Epoch: 2026-09-04T09:19:33.081Z)
Latitude
29.09306°
Longitude
-89.8334°
Altitude
784.067 km
Speed
7.463 km/s
True Right ascension
02h 14m 16s
True Declination
28° 56' 52"
Sunlit
Object was in full shadow at epoch
Visualization orbit readout
Latitude
Unknown
Longitude
Unknown
Altitude
Unknown
Speed
Unknown
Apparent Right ascension
Unknown
Apparent Declination
Unknown
Sunlit
N/A
Visualization observer readout
Local Sidereal Time
06:29:17
Azimuth
Unknown
Elevation
Unknown
Doppler factor
Unknown
Orbital elements
Apogee altitude
909.541 km
Perigee altitude
641.785 km
Semi-major axis
7,153.8 km
Eccentricity
0.01871
Inclination
97.8384°
RAAN
37.9374°
Arg. of periapsis
297.4799°
True anomaly
91.86602°
Mean anomaly
89.7218°
Eccentric anomaly
90.79395°
Mean motion
3.58705 °/min
Orbital period
100.36 mins
BSTAR
0.000082742
Loading maneuver chart data...
Computing Atmospheric mass density...

Documentation

Showing up to 5 results
|